#timestamp,LO_Frequency,Hit,StdDev 
1601074815.3,286075621.1,N
1601074835.1,286075620.8,N
1601074855.8,286075622.7,N
1601074875.7,286075623.3,N
1601074895.5,286075625.3,N
1601074915.4,286075623.5,N
1601074935.2,286075623.3,N
1601074955.0,286075623.1,N
1601074955.9,286075623.1,N
1601074975.8,286075621.1,N
1601074995.6,286075619.6,N
1601075015.4,286075619.6,N
1601075035.3,286075622.6,N
1601075055.1,286075623.3,N
1601075075.9,286075622.5,N
1601075095.7,286075621.0,N
1601075115.5,286075621.7,N
1601075135.4,286075623.0,Y
1601075155.2,286047000.4,P
1601075175.0,286047001.2,N
1601075175.9,286047001.2,N
1601075195.8,286047000.6,N
1601075215.6,286047002.8,N
1601075235.5,286047002.7,N
1601075255.3,286047000.7,N
1601075275.1,286047000.8,N
1601075295.9,286046998.7,N
1601075315.7,286047001.2,N
1601075335.6,286046998.7,N
1601075355.4,286047001.2,N
1601075375.2,286047000.7,N
1601075395.1,286046998.2,N
1601075396.0,286046998.2,N
1601075415.8,286047001.1,N
1601075435.6,286047002.1,N
1601075455.5,286046999.7,N
1601075475.3,286047000.0,N
1601075495.1,286046998.1,N
1601075515.9,286046998.2,N
1601075535.7,286047000.8,N
1601075555.6,286046999.3,N
1601075575.4,286046998.3,N
1601075595.2,286046998.8,N
1601075615.1,286046998.9,N
1601075616.0,286046998.9,N
1601075635.8,286046999.0,N
1601075655.6,286046997.4,N
1601075675.5,286046996.7,N
1601075695.3,286046998.5,N
1601075715.2,286047001.2,N
1601075735.9,286047001.4,N
1601075755.7,286047002.2,N
1601075775.6,286047002.4,N
1601075795.4,286047004.2,N
1601075815.2,286047003.5,N
1601075835.5,286047002.6,N
1601075855.4,286047002.7,N
1601075875.2,286047001.9,N
1601075895.0,286047003.9,N
1601075895.9,286047003.9,N
1601075915.8,286047004.1,N
1601075935.6,286047003.6,N
1601075955.5,286047003.0,N
1601075975.3,286047004.0,N
1601075995.1,286047004.1,N
1601076015.9,286047004.0,N
1601076035.7,286047002.5,N
1601076055.5,286047000.2,N
1601076075.4,286047000.3,N
1601076095.2,286047002.5,N
1601076115.1,286046998.2,N
1601076116.0,286046998.2,N
1601076135.8,286047000.0,N
1601076155.6,286047001.9,N
1601076175.5,286047000.9,N
1601076195.3,286047001.0,N
1601076215.1,286047000.1,N
1601076235.9,286047002.3,N
1601076255.7,286047002.2,N
1601076275.6,286047004.0,N
1601076295.4,286047002.2,N
1601076315.2,286047000.3,N
1601076335.1,286047000.4,N
1601076336.0,286047000.4,N
1601076355.8,286047000.2,N
1601076375.6,286046999.8,N
1601076395.5,286047002.2,N
1601076415.3,286047002.5,N
1601076435.2,286047003.1,N
1601076455.9,286047002.1,N
1601076475.7,286047000.0,N
1601076495.6,286047000.5,N
1601076515.4,286047000.8,N
1601076535.2,286047000.8,N
1601076555.1,286046999.3,N
1601076556.0,286046999.3,N
1601076575.8,286046996.5,N
1601076595.7,286046999.3,N
1601076615.5,286047000.8,N
1601076635.3,286047000.9,N
1601076655.2,286046999.7,N
1601076675.0,286046998.5,N
1601076675.9,286046998.5,N
1601076695.7,286046996.6,N
1601076715.6,286046999.6,N
1601076735.4,286046998.4,N
1601076755.3,286047002.7,N
1601076775.1,286047000.6,N
1601076795.8,286047001.6,N
1601076815.7,286047000.1,N
1601076835.5,286046998.3,N
1601076855.4,286046999.6,N
1601076875.2,286046997.4,N
1601076895.0,286046998.7,N
1601076895.9,286046998.7,N
1601076915.8,286046999.6,N
1601076935.6,286046996.5,N
1601076955.4,286046996.9,N
1601076975.3,286046999.4,N
1601076995.1,286046998.4,N
1601077015.9,286046997.2,N
1601077035.7,286046996.5,N
1601077055.5,286046998.1,N
1601077075.4,286046998.3,N
1601077095.2,286046998.2,N
1601077115.1,286046998.9,N
1601077116.0,286046998.9,N
1601077135.8,286047000.0,N
1601077155.6,286047000.2,N
1601077175.5,286046999.0,N
1601077195.3,286046996.6,N
1601077215.1,286046999.4,N
1601077235.9,286046999.7,N
1601077255.7,286047005.9,Y
1601077275.6,286047006.0,P
1601077295.4,286047005.4,N
1601077315.2,286047003.5,N
1601077335.1,286047004.4,N
1601077336.0,286047004.4,N
1601077355.8,286047003.5,N
1601077375.7,286047004.3,N
1601077395.5,286047001.3,N
1601077415.3,286047003.7,N
1601077435.2,286047004.1,N
1601077455.9,286047004.2,N
1601077475.7,286047002.3,N
1601077495.6,286046999.8,N
1601077515.4,286047000.0,N
1601077535.2,286047002.3,N
1601077555.1,286047001.4,N
1601077556.0,286047001.4,N
1601077575.8,286047003.2,N
1601077595.7,286047003.5,N
1601077615.5,286046999.8,N
1601077635.3,286046999.9,N
1601077655.2,286047001.7,N
1601077675.0,286047000.2,N
1601077675.9,286047000.2,N
1601077695.8,286047001.0,N
1601077715.6,286047002.7,N
1601077735.4,286047001.8,N
1601077755.3,286047001.3,N
1601077775.1,286047002.2,N
1601077795.8,286047001.4,N
1601077815.7,286047002.9,N
1601077835.5,286047005.7,Y
1601077855.4,286047001.9,P
1601077875.2,286047002.5,P
1601077895.0,286046999.7,N
1601077895.9,286046999.7,N
1601077915.8,286047001.6,N
1601077935.6,286047002.6,N
1601077955.4,286047001.4,N
1601077975.3,286047002.7,N
1601077995.1,286047004.3,Y
1601078015.9,286047000.5,P
1601078035.7,286047001.1,N
1601078055.5,286046998.3,P
1601078075.4,286046998.3,N
1601078095.2,286046999.0,N
1601078115.0,286046998.8,N
1601078115.9,286046998.8,N
1601078135.8,286046998.1,N
1601078155.6,286046999.1,N
1601078175.5,286046999.4,N
1601078195.3,286046998.5,N
1601078215.1,286046998.6,N
1601078235.9,286046999.3,N
1601078255.7,286046999.3,N
1601078275.5,286046999.1,N
1601078295.4,286047000.9,N
1601078315.2,286046999.8,N
1601078335.1,286046998.4,N
1601078336.0,286046998.4,N
1601078355.8,286046998.2,N
1601078375.6,286046999.1,N
1601078395.5,286046997.0,Y
